• In Uzbekistan
  • List of Countries
  • For 7 days
  • Water Temperature
  • Satellite Maps
  • Weather Map
  • Weather Widgets
  • user-avatar
    Login

    Hourly Weather Lubaszowa

    Today, 19 July, Thursday

    Time Temperature Precipitation Wind Pressure Humidity
    00:00 +20°C° 0.6 mm 4 mps 736 mmHg 97%
    01:00 +20°C° 0.6 mm 5 mps 736 mmHg 97%
    02:00 +20°C° 0.1 mm 5 mps 736 mmHg 97%
    03:00 +20°C° 0.1 mm 5 mps 736 mmHg 97%
    04:00 +20°C° 0.1 mm 5 mps 736 mmHg 96%
    05:00 +20°C° 0.2 mm 5 mps 736 mmHg 96%
    06:00 +20°C° 0.2 mm 5 mps 737 mmHg 96%
    07:00 +20°C° 0.2 mm 5 mps 737 mmHg 95%
    08:00 +20°C° 0.2 mm 5 mps 737 mmHg 95%
    09:00 +20°C° 0.2 mm 5 mps 737 mmHg 94%
    10:00 +20°C° 0.2 mm 5 mps 738 mmHg 93%
    11:00 +20°C° 0.1 mm 5 mps 738 mmHg 92%
    12:00 +21°C° 0.1 mm 5 mps 738 mmHg 91%
    13:00 +21°C° 0.1 mm 5 mps 738 mmHg 90%
    14:00 +21°C° 0.1 mm 5 mps 738 mmHg 89%
    15:00 +21°C° 0.1 mm 5 mps 738 mmHg 88%
    16:00 +21°C° 0.1 mm 5 mps 738 mmHg 88%
    17:00 +21°C° 0.2 mm 5 mps 738 mmHg 89%
    18:00 +20°C° 0.2 mm 5 mps 738 mmHg 90%
    19:00 +20°C° 0.2 mm 4 mps 738 mmHg 91%
    20:00 +19°C° 0.1 mm 4 mps 738 mmHg 92%
    21:00 +19°C° 0.1 mm 4 mps 738 mmHg 94%
    22:00 +18°C° 0.1 mm 4 mps 739 mmHg 95%
    23:00 +18°C° 0 mm 4 mps 738 mmHg 96%

    Tomorrow, 20 July, Friday

    Time Temperature Precipitation Wind Pressure Humidity
    00:00 +18°C° 0 mm 4 mps 738 mmHg 96%
    01:00 +18°C° 0 mm 3 mps 738 mmHg 96%
    02:00 +18°C° 0.1 mm 3 mps 738 mmHg 96%
    03:00 +18°C° 0.1 mm 3 mps 738 mmHg 96%
    04:00 +18°C° 0.1 mm 3 mps 738 mmHg 96%
    05:00 +19°C° 0.2 mm 3 mps 738 mmHg 96%
    06:00 +19°C° 0.2 mm 3 mps 739 mmHg 96%
    07:00 +19°C° 0.2 mm 3 mps 739 mmHg 96%
    08:00 +19°C° 0.3 mm 3 mps 739 mmHg 95%
    09:00 +19°C° 0.3 mm 3 mps 739 mmHg 94%
    10:00 +19°C° 0.3 mm 4 mps 739 mmHg 93%
    11:00 +20°C° 0.1 mm 4 mps 739 mmHg 88%
    12:00 +22°C° 0.1 mm 4 mps 739 mmHg 83%
    13:00 +23°C° 0.1 mm 5 mps 739 mmHg 78%
    14:00 +23°C° 0 mm 5 mps 739 mmHg 74%
    15:00 +25°C° 0 mm 4 mps 739 mmHg 71%
    16:00 +25°C° 0 mm 4 mps 739 mmHg 68%
    17:00 +23°C° 0.1 mm 4 mps 739 mmHg 73%
    18:00 +22°C° 0.1 mm 3 mps 739 mmHg 79%
    19:00 +21°C° 0.1 mm 2 mps 739 mmHg 85%
    20:00 +20°C° 0 mm 2 mps 739 mmHg 88%
    21:00 +19°C° 0 mm 2 mps 739 mmHg 90%
    22:00 +18°C° 0 mm 2 mps 739 mmHg 93%
    23:00 +18°C° 0 mm 2 mps 739 mmHg 94%

    Day after tomorrow, 21 July, Saturday

    Time Temperature Precipitation Wind Pressure Humidity
    00:00 +17°C° 0 mm 2 mps 739 mmHg 94%
    01:00 +17°C° 0 mm 2 mps 739 mmHg 95%
    02:00 +17°C° 0 mm 2 mps 739 mmHg 95%
    03:00 +16°C° 0 mm 2 mps 739 mmHg 95%
    04:00 +16°C° 0 mm 1 mps 739 mmHg 95%
    05:00 +19°C° 0 mm 1 mps 739 mmHg 91%
    06:00 +20°C° 0 mm 1 mps 739 mmHg 87%
    07:00 +22°C° 0 mm 1 mps 739 mmHg 83%
    08:00 +23°C° 0.1 mm 1 mps 739 mmHg 77%
    09:00 +24°C° 0.1 mm 1 mps 739 mmHg 72%
    10:00 +26°C° 0.1 mm 1 mps 739 mmHg 67%
    11:00 +26°C° 0.1 mm 1 mps 739 mmHg 64%
    12:00 +27°C° 0.1 mm 1 mps 739 mmHg 62%
    13:00 +28°C° 0.1 mm 1 mps 739 mmHg 60%
    14:00 +27°C° 0.3 mm 1 mps 739 mmHg 62%
    15:00 +27°C° 0.3 mm 1 mps 738 mmHg 63%
    16:00 +27°C° 0.3 mm 2 mps 738 mmHg 65%
    17:00 +26°C° 0.3 mm 1 mps 738 mmHg 70%
    18:00 +24°C° 0.3 mm 1 mps 738 mmHg 75%
    19:00 +23°C° 0.3 mm 1 mps 738 mmHg 79%
    20:00 +22°C° 0 mm 1 mps 738 mmHg 81%
    21:00 +21°C° 0 mm 1 mps 738 mmHg 84%
    22:00 +20°C° 0 mm 1 mps 738 mmHg 86%
    23:00 +20°C° 0 mm 1 mps 738 mmHg 87%

    22 July, Sunday

    Time Temperature Precipitation Wind Pressure Humidity
    00:00 +19°C° 0 mm 1 mps 738 mmHg 88%
    01:00 +19°C° 0 mm 1 mps 738 mmHg 90%
    02:00 +16°C° 0 mm 0 mps 738 mmHg 90%
    03:00 +16°C° 0 mm 0 mps 738 mmHg 91%
    04:00 +16°C° 0 mm 0 mps 738 mmHg 91%
    05:00 +17°C° 0 mm 0 mps 738 mmHg 88%
    06:00 +21°C° 0 mm 1 mps 738 mmHg 84%
    07:00 +22°C° 0 mm 1 mps 738 mmHg 81%
    08:00 +23°C° 0.2 mm 1 mps 738 mmHg 77%
    09:00 +24°C° 0.2 mm 2 mps 738 mmHg 74%
    10:00 +26°C° 0.2 mm 2 mps 738 mmHg 71%
    11:00 +26°C° 0.5 mm 2 mps 737 mmHg 70%
    12:00 +26°C° 0.5 mm 2 mps 737 mmHg 70%
    13:00 +26°C° 0.5 mm 2 mps 737 mmHg 69%
    14:00 +26°C° 0.5 mm 2 mps 737 mmHg 70%
    15:00 +26°C° 0.5 mm 2 mps 737 mmHg 70%
    16:00 +26°C° 0.5 mm 1 mps 737 mmHg 71%
    17:00 +25°C° 0.2 mm 1 mps 737 mmHg 74%
    18:00 +24°C° 0.2 mm 1 mps 737 mmHg 76%
    19:00 +23°C° 0.2 mm 1 mps 737 mmHg 79%
    20:00 +22°C° 0 mm 1 mps 737 mmHg 80%
    21:00 +21°C° 0 mm 1 mps 737 mmHg 80%
    22:00 +20°C° 0 mm 1 mps 738 mmHg 80%
    23:00 +19°C° 0 mm 1 mps 737 mmHg 82%

    23 July, Monday

    Time Temperature Precipitation Wind Pressure Humidity
    00:00 +18°C° 0 mm 2 mps 737 mmHg 84%
    01:00 +17°C° 0 mm 2 mps 737 mmHg 86%
    02:00 +17°C° 0 mm 2 mps 738 mmHg 87%
    03:00 +16°C° 0 mm 1 mps 738 mmHg 89%
    04:00 +16°C° 0 mm 1 mps 738 mmHg 90%
    05:00 +17°C° 0 mm 2 mps 738 mmHg 87%
    06:00 +18°C° 0 mm 2 mps 739 mmHg 85%
    07:00 +19°C° 0 mm 2 mps 739 mmHg 82%
    08:00 +21°C° 0 mm 3 mps 739 mmHg 76%
    09:00 +24°C° 0 mm 3 mps 739 mmHg 70%
    10:00 +25°C° 0 mm 4 mps 739 mmHg 64%
    11:00 +26°C° 0.1 mm 4 mps 739 mmHg 62%
    12:00 +26°C° 0.1 mm 4 mps 739 mmHg 60%
    13:00 +27°C° 0.1 mm 4 mps 739 mmHg 59%
    14:00 +27°C° 0 mm 4 mps 739 mmHg 59%
    15:00 +27°C° 0 mm 4 mps 739 mmHg 59%
    16:00 +27°C° 0 mm 4 mps 739 mmHg 60%
    17:00 +25°C° 0 mm 3 mps 739 mmHg 66%
    18:00 +24°C° 0 mm 3 mps 739 mmHg 72%
    19:00 +21°C° 0 mm 2 mps 740 mmHg 79%
    20:00 +20°C° 0 mm 2 mps 740 mmHg 82%
    21:00 +19°C° 0 mm 2 mps 740 mmHg 86%
    22:00 +18°C° 0 mm 2 mps 740 mmHg 89%
    23:00 +18°C° 0 mm 2 mps 740 mmHg 90%

    24 July, Tuesday

    Time Temperature Precipitation Wind Pressure Humidity
    00:00 +18°C° 0 mm 1 mps 741 mmHg 91%
    01:00 +18°C° 0 mm 1 mps 741 mmHg 93%
    02:00 +18°C° 0 mm 1 mps 741 mmHg 93%
    03:00 +16°C° 0 mm 1 mps 741 mmHg 93%
    04:00 +16°C° 0 mm 1 mps 741 mmHg 94%
    05:00 +18°C° 0 mm 1 mps 741 mmHg 89%
    06:00 +19°C° 0 mm 2 mps 741 mmHg 84%
    07:00 +20°C° 0 mm 2 mps 742 mmHg 80%
    08:00 +23°C° 0 mm 2 mps 742 mmHg 74%
    09:00 +24°C° 0 mm 2 mps 742 mmHg 69%
    10:00 +25°C° 0 mm 2 mps 742 mmHg 64%
    11:00 +26°C° 0 mm 3 mps 742 mmHg 63%
    12:00 +26°C° 0 mm 3 mps 742 mmHg 62%
    13:00 +27°C° 0 mm 3 mps 742 mmHg 61%
    14:00 +27°C° 0 mm 3 mps 742 mmHg 62%
    15:00 +27°C° 0 mm 3 mps 742 mmHg 63%
    16:00 +27°C° 0 mm 3 mps 742 mmHg 63%
    17:00 +26°C° 0 mm 2 mps 742 mmHg 69%
    18:00 +24°C° 0 mm 2 mps 742 mmHg 75%
    19:00 +23°C° 0 mm 2 mps 742 mmHg 81%
    20:00 +22°C° 0 mm 1 mps 742 mmHg 84%
    21:00 +21°C° 0 mm 1 mps 742 mmHg 87%
    22:00 +20°C° 0 mm 1 mps 743 mmHg 89%
    23:00 +20°C° 0 mm 1 mps 743 mmHg 90%
    Show more